Regional Weather Roundup
Issued by NWS

Home | Current Version | Previous Version | Text Only | Print | Product List | Glossary On
Versions: 1 2 3 4 5 6 7 8 9 10 11 12 13 14 15 16 17 18 19 20 21 22 23 24 25 26 27 28 29 30 31 32 33 34 35 36 37 38 39 40 41 42 43 44 45 46 47 48 49 50
651
ASUS44 KOUN 302010
RWROK

WEATHER ROUNDUP FOR OKLAHOMA
NATIONAL WEATHER SERVICE NORMAN OK
300 PM CDT TUE AUG 30 2016

NOTE: "FAIR" INDICATES FEW OR NO CLOUDS BELOW 12,000 FEET WITH NO
      SIGNIFICANT WEATHER AND/OR OBSTRUCTIONS TO VISIBILITY.

OKZ001>007-009>012-014-015-017-302100-
NORTHWEST OKLAHOMA AND THE PANHANDLE

CITY           SKY/WX    TMP DP  RH WIND       PRES   REMARKS
GAGE           CLOUDY    82  65  56 E3        30.16F
GUYMON         LGT RAIN  74  65  73 CALM      30.23F
ENID/WOODRING  PTSUNNY   93  66  40 E12       30.06F HX  96
$$

OKZ016-021>023-033>039-044-045-302100-
SOUTHWEST OKLAHOMA

CITY           SKY/WX    TMP DP  RH WIND       PRES   REMARKS
LAWTON/REGL    PTSUNNY   94  67  41 NE8       30.05F HX  97
LAWTON/FT SILL LGT RAIN  81  72  74 NE13      30.04F
FREDERICK      SUNNY     91  67  44 E6        30.03F HX  94
CLINTON        MOSUNNY   88  66  48 SE9       30.13F HX  90
HOBART         CLOUDY    86  68  54 E5        30.10F
ALTUS AFB      CLOUDY    83  69  62 N3        30.08F
$$

OKZ018>020-024>031-302100-
CENTRAL OKLAHOMA

CITY           SKY/WX    TMP DP  RH WIND       PRES   REMARKS
OKLAHOMA CITY  PTSUNNY   93  65  39 VRB3      30.07F HX  95
OKC/WILEY POST PTSUNNY   91  66  43 NE8       30.07F HX  93
OKC/TINKER AFB MOSUNNY   92  66  42 E9        30.06F HX  95
STILLWATER     SUNNY     91  68  46 E5        30.07F HX  95
GUTHRIE        MOSUNNY   91  69  48 CALM      30.07F HX  96
$$

OKZ008-013-054>072-302100-
NORTHEAST OKLAHOMA

CITY           SKY/WX    TMP DP  RH WIND       PRES   REMARKS
TULSA          MOSUNNY   95  71  45 VRB7      30.03F HX 102
TULSA/JONES    SUNNY     94  73  50 CALM      30.04F HX 103
PONCA CITY     SUNNY     91  69  48 VRB5      30.07F HX  96
BARTLESVILLE   MOSUNNY   92  72  51 SE3       30.06F HX  99
MUSKOGEE       PTSUNNY   92  70  48 N6        30.04F HX  97
$$

OKZ032-040>043-046>053-073>077-302100-
SOUTH CENTRAL/SOUTHEAST OKLAHOMA

CITY           SKY/WX    TMP DP  RH WIND       PRES   REMARKS
ARDMORE/DWNTWN MOSUNNY   91  63  38 S5        30.02F HX  92
MCALESTER      SUNNY     94  69  44 VRB5      30.03F HX  99
$$





USA.gov is the U.S. government's official web portal to all federal, state and local government web resources and services.